GFSFLT2_prec_precacc12_069.txt.gz
Total_Precipitation_Accumulation
0.53 0.41 0.23 0.10 0.44 1.47 2.17 1.36 0.24 0.05 0.01 0.00 0.00 0.00 0.02 0.01 0.01 0.00 0.00 0.00 0.00 0.00 0.00 0.00 0.00 0.00 0.00 0.00 0.00 0.00 0.00 0.00
0.53 0.70 0.25 0.13 0.25 0.63 1.27 1.92 0.98 0.29 0.04 0.01 0.01 0.00 0.00 0.00 0.01 0.00 0.00 0.00 0.00 0.00 0.00 0.00 0.00 0.00 0.00 0.00 0.00 0.00 0.00 0.00
0.74 0.95 0.61 0.25 0.19 0.32 0.51 1.06 1.06 0.72 0.18 0.14 0.05 0.01 0.00 0.00 0.02 0.01 0.01 0.00 0.00 0.00 0.00 0.00 0.00 0.00 0.00 0.00 0.00 0.00 0.00 0.00
1.14 2.03 1.52 1.07 0.60 0.27 0.25 0.55 0.66 0.81 0.39 0.06 0.04 0.05 0.02 0.00 0.00 0.00 0.00 0.00 0.00 0.00 0.00 0.00 0.00 0.00 0.00 0.00 0.00 0.00 0.00 0.00
0.92 2.09 2.72 2.36 1.24 0.51 0.29 0.55 0.80 0.86 0.78 0.22 0.09 0.14 0.05 0.01 0.00 0.00 0.00 0.00 0.00 0.00 0.00 0.00 0.00 0.00 0.00 0.00 0.00 0.00 0.00 0.00
1.27 1.56 1.53 1.98 2.12 0.86 0.44 0.32 0.55 0.67 0.60 0.31 0.15 0.11 0.03 0.01 0.00 0.00 0.00 0.00 0.00 0.00 0.00 0.00 0.00 0.00 0.00 0.00 0.00 0.00 0.00 0.00
0.87 0.72 0.57 0.67 1.23 1.33 0.61 0.45 0.33 0.37 0.36 0.27 0.16 0.10 0.03 0.01 0.00 0.00 0.00 0.00 0.00 0.00 0.00 0.00 0.00 0.00 0.00 0.00 0.00 0.00 0.00 0.00
0.58 0.34 0.34 0.25 0.37 0.67 0.71 0.43 0.42 0.32 0.27 0.19 0.14 0.06 0.01 0.01 0.02 0.00 0.00 0.00 0.00 0.00 0.00 0.00 0.00 0.00 0.00 0.00 0.00 0.00 0.00 0.00
0.62 0.54 0.25 0.29 0.34 0.28 0.56 0.43 0.27 0.26 0.26 0.13 0.11 0.02 0.00 0.00 0.01 0.00 0.00 0.00 0.00 0.00 0.00 0.00 0.00 0.00 0.00 0.00 0.00 0.00 0.00 0.00
0.36 0.35 0.29 0.23 0.30 0.36 0.35 0.32 0.26 0.19 0.18 0.07 0.04 0.01 0.00 0.00 0.00 0.00 0.00 0.00 0.00 0.00 0.00 0.00 0.00 0.00 0.00 0.00 0.00 0.00 0.00 0.00
0.16 0.12 0.33 0.20 0.23 0.20 0.16 0.13 0.21 0.16 0.14 0.05 0.01 0.00 0.00 0.00 0.00 0.00 0.00 0.00 0.00 0.00 0.00 0.00 0.00 0.00 0.00 0.00 0.00 0.00 0.00 0.00
0.16 0.18 0.15 0.15 0.12 0.10 0.09 0.10 0.16 0.16 0.11 0.03 0.00 0.00 0.00 0.00 0.01 0.02 0.02 0.02 0.02 0.02 0.04 0.02 0.01 0.00 0.00 0.00 0.00 0.00 0.00 0.00
0.10 0.12 0.23 0.17 0.10 0.08 0.07 0.07 0.06 0.08 0.06 0.02 0.01 0.02 0.04 0.03 0.04 0.03 0.03 0.04 0.04 0.02 0.03 0.03 0.02 0.01 0.00 0.00 0.00 0.00 0.00 0.00
0.01 0.01 0.09 0.17 0.10 0.05 0.02 0.04 0.02 0.03 0.02 0.02 0.01 0.01 0.04 0.04 0.05 0.02 0.01 0.04 0.04 0.02 0.02 0.03 0.02 0.02 0.00 0.03 0.03 0.02 0.00 0.00
0.00 0.00 0.01 0.04 0.05 0.07 0.02 0.02 0.04 0.03 0.02 0.01 0.00 0.00 0.02 0.04 0.06 0.05 0.03 0.03 0.05 0.03 0.01 0.01 0.15 0.06 0.01 0.09 0.10 0.06 0.05 0.01
0.00 0.00 0.00 0.01 0.01 0.03 0.02 0.01 0.02 0.01 0.01 0.00 0.00 0.00 0.00 0.00 0.01 0.01 0.02 0.03 0.03 0.02 0.01 0.01 0.30 0.20 0.06 0.01 0.01 0.02 0.04 0.02
0.01 0.00 0.00 0.00 0.01 0.02 0.01 0.01 0.00 0.01 0.01 0.00 0.01 0.00 0.01 0.01 0.02 0.02 0.01 0.05 0.06 0.17 0.15 0.12 0.19 0.20 0.06 0.07 0.02 0.01 0.01 0.02
0.00 0.01 0.00 0.00 0.00 0.01 0.01 0.00 0.00 0.00 0.01 0.00 0.00 0.00 0.01 0.01 0.01 0.02 0.04 0.06 0.08 0.14 0.19 0.26 0.25 0.28 0.29 0.25 0.17 0.12 0.07 0.07
0.00 0.00 0.00 0.00 0.00 0.00 0.00 0.00 0.00 0.00 0.00 0.00 0.00 0.00 0.00 0.00 0.00 0.00 0.00 0.02 0.05 0.09 0.13 0.12 0.15 0.19 0.21 0.18 0.15 0.12 0.16 0.24
0.00 0.00 0.00 0.00 0.00 0.00 0.00 0.00 0.00 0.00 0.00 0.00 0.00 0.00 0.00 0.00 0.00 0.00 0.00 0.01 0.06 0.10 0.10 0.07 0.09 0.11 0.12 0.14 0.14 0.13 0.14 0.15

GFSFLT2_prec_precacc12_072.txt.gz
Total_Precipitation_Accumulation
0.38 0.22 0.15 0.10 0.42 1.41 2.04 2.10 1.70 1.06 0.10 0.00 0.00 0.00 0.02 0.01 0.01 0.00 0.00 0.00 0.00 0.00 0.00 0.00 0.00 0.00 0.00 0.00 0.00 0.00 0.00 0.00
0.24 0.45 0.15 0.12 0.26 0.46 1.15 2.88 1.83 0.86 0.24 0.04 0.01 0.00 0.01 0.00 0.01 0.00 0.00 0.00 0.00 0.00 0.00 0.00 0.00 0.00 0.00 0.00 0.00 0.00 0.00 0.00
0.27 0.46 0.35 0.19 0.23 0.32 0.45 1.74 2.21 1.65 0.33 0.32 0.07 0.01 0.02 0.01 0.03 0.01 0.01 0.00 0.00 0.00 0.00 0.00 0.00 0.00 0.00 0.00 0.00 0.00 0.00 0.00
0.47 0.85 0.69 0.62 0.57 0.44 0.27 0.62 1.48 1.68 0.71 0.27 0.08 0.06 0.09 0.06 0.01 0.00 0.00 0.00 0.00 0.00 0.00 0.00 0.00 0.00 0.00 0.00 0.00 0.00 0.00 0.00
0.60 1.13 1.94 1.88 1.14 0.66 0.35 0.61 1.21 1.49 1.03 0.34 0.12 0.15 0.18 0.09 0.01 0.00 0.00 0.00 0.00 0.00 0.00 0.00 0.00 0.00 0.00 0.00 0.00 0.00 0.00 0.00
0.94 0.87 1.25 1.91 2.18 0.95 0.52 0.34 0.98 1.27 0.85 0.46 0.23 0.14 0.09 0.18 0.01 0.00 0.00 0.00 0.00 0.00 0.00 0.00 0.00 0.00 0.00 0.00 0.00 0.00 0.00 0.00
0.57 0.60 0.57 0.71 1.32 1.43 0.70 0.49 0.61 0.99 0.62 0.31 0.21 0.13 0.09 0.11 0.01 0.00 0.00 0.00 0.00 0.00 0.00 0.00 0.00 0.00 0.00 0.00 0.00 0.00 0.00 0.00
0.46 0.26 0.31 0.24 0.39 0.79 0.95 0.48 0.58 0.72 0.42 0.19 0.17 0.11 0.10 0.12 0.05 0.01 0.00 0.00 0.00 0.00 0.00 0.00 0.00 0.00 0.00 0.00 0.00 0.00 0.00 0.00
0.51 0.22 0.18 0.24 0.31 0.30 0.72 0.63 0.34 0.40 0.37 0.19 0.18 0.08 0.05 0.07 0.03 0.01 0.00 0.00 0.00 0.00 0.00 0.00 0.00 0.00 0.00 0.00 0.00 0.00 0.00 0.00
0.27 0.13 0.14 0.20 0.29 0.36 0.37 0.48 0.41 0.26 0.27 0.16 0.11 0.05 0.05 0.05 0.04 0.01 0.00 0.00 0.00 0.00 0.00 0.00 0.00 0.00 0.00 0.00 0.00 0.00 0.00 0.00
0.11 0.06 0.17 0.15 0.22 0.26 0.24 0.23 0.33 0.24 0.19 0.13 0.08 0.04 0.03 0.02 0.05 0.03 0.00 0.00 0.00 0.00 0.00 0.00 0.00 0.00 0.00 0.00 0.00 0.00 0.00 0.00
0.09 0.09 0.09 0.12 0.11 0.12 0.12 0.16 0.25 0.25 0.15 0.07 0.05 0.04 0.02 0.02 0.02 0.01 0.01 0.01 0.00 0.01 0.03 0.01 0.01 0.00 0.00 0.00 0.00 0.00 0.00 0.00
0.08 0.08 0.13 0.08 0.09 0.07 0.05 0.08 0.11 0.14 0.09 0.03 0.03 0.03 0.01 0.00 0.00 0.00 0.00 0.01 0.02 0.02 0.03 0.03 0.02 0.01 0.00 0.00 0.00 0.00 0.00 0.00
0.01 0.01 0.03 0.05 0.05 0.04 0.01 0.03 0.02 0.04 0.03 0.03 0.02 0.01 0.00 0.01 0.01 0.01 0.00 0.01 0.03 0.02 0.02 0.03 0.02 0.02 0.00 0.04 0.04 0.02 0.00 0.00
0.01 0.00 0.01 0.02 0.03 0.05 0.02 0.02 0.04 0.04 0.02 0.01 0.01 0.01 0.01 0.02 0.04 0.03 0.03 0.03 0.06 0.05 0.02 0.01 0.18 0.07 0.01 0.10 0.16 0.09 0.11 0.02
0.01 0.00 0.00 0.01 0.01 0.03 0.02 0.01 0.01 0.01 0.01 0.00 0.01 0.01 0.01 0.00 0.01 0.01 0.02 0.03 0.05 0.07 0.05 0.03 0.44 0.29 0.16 0.07 0.05 0.07 0.24 0.18
0.01 0.01 0.00 0.00 0.01 0.02 0.01 0.01 0.00 0.01 0.01 0.00 0.01 0.01 0.01 0.01 0.03 0.02 0.01 0.05 0.08 0.21 0.20 0.18 0.35 0.23 0.05 0.10 0.05 0.03 0.07 0.06
0.01 0.01 0.00 0.00 0.00 0.01 0.01 0.00 0.00 0.00 0.01 0.00 0.00 0.00 0.01 0.01 0.02 0.02 0.05 0.07 0.09 0.14 0.15 0.23 0.27 0.25 0.15 0.14 0.12 0.13 0.09 0.09
0.00 0.00 0.00 0.00 0.00 0.00 0.00 0.00 0.00 0.00 0.00 0.00 0.00 0.00 0.00 0.00 0.00 0.00 0.01 0.02 0.04 0.06 0.11 0.06 0.09 0.16 0.18 0.16 0.15 0.14 0.19 0.26
0.00 0.00 0.00 0.00 0.00 0.00 0.00 0.00 0.00 0.00 0.00 0.00 0.00 0.00 0.00 0.00 0.00 0.00 0.00 0.00 0.01 0.03 0.06 0.03 0.08 0.11 0.12 0.13 0.15 0.13 0.14 0.15

GFSFLT2_prec_precacc12_075.txt.gz
Total_Precipitation_Accumulation
0.30 0.11 0.19 0.09 0.40 1.51 2.45 2.68 2.87 2.39 1.66 0.70 0.30 0.01 0.00 0.00 0.01 0.00 0.00 0.00 0.00 0.00 0.00 0.00 0.00 0.00 0.00 0.00 0.00 0.00 0.00 0.00
0.18 0.28 0.13 0.14 0.27 0.46 1.24 2.88 1.86 1.43 1.97 1.45 0.55 0.04 0.00 0.00 0.01 0.00 0.00 0.00 0.00 0.00 0.00 0.00 0.00 0.00 0.00 0.00 0.00 0.00 0.00 0.00
0.16 0.26 0.25 0.14 0.24 0.32 0.45 1.71 2.10 1.76 0.88 1.55 0.49 0.04 0.02 0.01 0.03 0.01 0.01 0.00 0.00 0.00 0.00 0.00 0.00 0.00 0.00 0.00 0.00 0.00 0.00 0.00
0.21 0.44 0.41 0.39 0.42 0.46 0.27 0.48 1.37 1.93 1.26 0.79 0.36 0.09 0.09 0.06 0.01 0.00 0.00 0.00 0.00 0.00 0.00 0.00 0.00 0.00 0.00 0.00 0.00 0.00 0.00 0.00
0.19 0.36 0.82 0.84 0.50 0.51 0.31 0.45 1.15 2.01 1.81 0.76 0.30 0.18 0.18 0.09 0.01 0.00 0.00 0.00 0.00 0.00 0.00 0.00 0.00 0.00 0.00 0.00 0.00 0.00 0.00 0.00
0.26 0.35 0.67 1.17 1.65 0.81 0.48 0.33 0.98 1.56 1.87 0.73 0.38 0.17 0.10 0.19 0.01 0.00 0.00 0.00 0.00 0.00 0.00 0.00 0.00 0.00 0.00 0.00 0.00 0.00 0.00 0.00
0.13 0.40 0.42 0.54 1.25 1.38 0.68 0.52 0.65 1.17 1.34 0.48 0.25 0.13 0.10 0.15 0.02 0.00 0.00 0.00 0.00 0.00 0.00 0.00 0.00 0.00 0.00 0.00 0.00 0.00 0.00 0.00
0.07 0.14 0.27 0.23 0.51 0.96 1.09 0.56 0.66 0.93 1.00 0.40 0.20 0.11 0.10 0.14 0.05 0.01 0.00 0.00 0.00 0.00 0.00 0.00 0.00 0.00 0.00 0.00 0.00 0.00 0.00 0.00
0.12 0.08 0.08 0.23 0.31 0.37 0.85 0.73 0.42 0.47 0.58 0.37 0.20 0.08 0.06 0.09 0.03 0.01 0.00 0.00 0.00 0.00 0.00 0.00 0.00 0.00 0.00 0.00 0.00 0.00 0.00 0.00
0.06 0.05 0.07 0.16 0.19 0.33 0.38 0.55 0.48 0.28 0.29 0.20 0.12 0.05 0.05 0.05 0.04 0.01 0.00 0.00 0.00 0.00 0.00 0.00 0.00 0.00 0.00 0.00 0.00 0.00 0.00 0.00
0.07 0.01 0.10 0.04 0.16 0.26 0.22 0.30 0.48 0.28 0.20 0.14 0.09 0.04 0.03 0.02 0.06 0.05 0.01 0.01 0.00 0.00 0.00 0.00 0.00 0.00 0.00 0.00 0.00 0.00 0.00 0.00
0.01 0.01 0.05 0.06 0.05 0.12 0.15 0.18 0.37 0.29 0.18 0.08 0.06 0.04 0.02 0.02 0.04 0.09 0.06 0.06 0.04 0.00 0.00 0.01 0.01 0.00 0.00 0.00 0.00 0.00 0.00 0.00
0.03 0.01 0.04 0.05 0.03 0.05 0.04 0.08 0.16 0.18 0.10 0.05 0.03 0.03 0.01 0.01 0.00 0.03 0.07 0.14 0.05 0.01 0.00 0.02 0.02 0.01 0.00 0.00 0.00 0.00 0.00 0.00
0.01 0.00 0.02 0.03 0.01 0.02 0.01 0.02 0.03 0.04 0.03 0.02 0.02 0.01 0.00 0.00 0.00 0.00 0.02 0.05 0.05 0.02 0.01 0.02 0.01 0.01 0.00 0.04 0.04 0.02 0.00 0.00
0.01 0.00 0.00 0.01 0.01 0.02 0.01 0.02 0.05 0.05 0.02 0.01 0.01 0.01 0.00 0.00 0.00 0.00 0.00 0.00 0.02 0.02 0.01 0.01 0.17 0.07 0.01 0.10 0.16 0.09 0.11 0.02
0.01 0.00 0.00 0.00 0.01 0.01 0.01 0.01 0.01 0.01 0.00 0.00 0.01 0.01 0.01 0.00 0.00 0.00 0.00 0.00 0.02 0.04 0.04 0.03 0.45 0.30 0.17 0.07 0.07 0.13 0.26 0.20
0.01 0.01 0.00 0.00 0.02 0.02 0.01 0.01 0.00 0.00 0.01 0.00 0.00 0.01 0.01 0.01 0.03 0.02 0.01 0.05 0.08 0.21 0.20 0.19 0.39 0.25 0.05 0.10 0.06 0.06 0.11 0.07
0.01 0.01 0.00 0.00 0.00 0.02 0.01 0.00 0.00 0.00 0.01 0.00 0.00 0.00 0.01 0.01 0.02 0.03 0.05 0.07 0.09 0.14 0.15 0.25 0.33 0.24 0.10 0.10 0.10 0.09 0.06 0.10
0.00 0.00 0.00 0.00 0.00 0.00 0.00 0.00 0.00 0.00 0.00 0.00 0.00 0.00 0.00 0.00 0.00 0.00 0.01 0.02 0.04 0.07 0.13 0.12 0.16 0.16 0.12 0.09 0.08 0.10 0.18 0.28
0.00 0.00 0.00 0.00 0.00 0.00 0.00 0.00 0.00 0.00 0.00 0.00 0.00 0.00 0.00 0.00 0.00 0.00 0.00 0.00 0.02 0.04 0.08 0.04 0.07 0.10 0.10 0.07 0.09 0.07 0.10 0.14

GFSFLT2_prec_precacc12_078.txt.gz
Total_Precipitation_Accumulation
0.08 0.09 0.18 0.07 0.25 1.23 2.25 3.17 3.91 3.30 2.15 1.31 1.60 0.75 0.25 0.03 0.01 0.00 0.00 0.00 0.00 0.00 0.00 0.00 0.00 0.00 0.00 0.00 0.00 0.00 0.00 0.00
0.07 0.12 0.11 0.10 0.23 0.51 1.38 2.80 1.87 1.73 2.37 2.10 1.61 0.89 0.36 0.08 0.01 0.00 0.00 0.00 0.00 0.00 0.00 0.00 0.00 0.00 0.00 0.00 0.00 0.00 0.00 0.00
0.06 0.11 0.16 0.10 0.22 0.37 0.56 1.63 1.98 1.72 0.94 1.81 1.67 0.86 0.38 0.08 0.03 0.00 0.00 0.00 0.00 0.00 0.00 0.00 0.00 0.00 0.00 0.00 0.00 0.00 0.00 0.00
0.16 0.25 0.31 0.33 0.36 0.51 0.31 0.44 1.19 1.77 1.23 0.89 1.14 0.85 0.36 0.10 0.01 0.00 0.00 0.00 0.00 0.00 0.00 0.00 0.00 0.00 0.00 0.00 0.00 0.00 0.00 0.00
0.11 0.15 0.43 0.43 0.40 0.57 0.28 0.28 0.85 1.78 1.60 0.74 0.82 0.75 0.35 0.10 0.01 0.00 0.00 0.00 0.00 0.00 0.00 0.00 0.00 0.00 0.00 0.00 0.00 0.00 0.00 0.00
0.07 0.08 0.17 0.46 0.67 0.42 0.33 0.16 0.75 1.43 1.85 0.76 0.77 0.45 0.14 0.19 0.01 0.00 0.00 0.00 0.00 0.00 0.00 0.00 0.00 0.00 0.00 0.00 0.00 0.00 0.00 0.00
0.01 0.02 0.06 0.11 0.52 0.82 0.45 0.39 0.60 1.10 1.78 0.70 0.43 0.25 0.10 0.15 0.02 0.00 0.00 0.00 0.00 0.00 0.00 0.00 0.00 0.00 0.00 0.00 0.00 0.00 0.00 0.00
0.00 0.01 0.05 0.06 0.24 0.68 1.02 0.50 0.64 0.87 1.19 0.71 0.31 0.14 0.10 0.14 0.05 0.01 0.00 0.00 0.00 0.00 0.00 0.00 0.00 0.00 0.00 0.00 0.00 0.00 0.00 0.00
0.01 0.02 0.04 0.11 0.16 0.27 0.79 0.75 0.44 0.45 0.66 0.67 0.30 0.09 0.06 0.09 0.03 0.01 0.00 0.00 0.00 0.00 0.00 0.00 0.00 0.00 0.00 0.00 0.00 0.00 0.00 0.00
0.01 0.00 0.02 0.10 0.14 0.25 0.39 0.63 0.55 0.28 0.28 0.36 0.16 0.05 0.05 0.05 0.04 0.01 0.00 0.00 0.00 0.00 0.00 0.00 0.00 0.00 0.00 0.00 0.00 0.00 0.00 0.00
0.00 0.00 0.02 0.02 0.11 0.21 0.25 0.34 0.54 0.28 0.18 0.16 0.11 0.04 0.03 0.02 0.06 0.05 0.01 0.01 0.00 0.00 0.00 0.00 0.00 0.00 0.00 0.00 0.00 0.00 0.00 0.00
0.00 0.00 0.03 0.02 0.04 0.11 0.17 0.23 0.43 0.34 0.18 0.08 0.07 0.04 0.02 0.02 0.04 0.09 0.06 0.06 0.04 0.00 0.00 0.00 0.00 0.00 0.00 0.00 0.00 0.00 0.00 0.00
0.01 0.01 0.01 0.03 0.02 0.04 0.11 0.13 0.22 0.30 0.13 0.05 0.03 0.03 0.01 0.01 0.00 0.03 0.07 0.14 0.06 0.01 0.00 0.00 0.00 0.00 0.00 0.00 0.00 0.00 0.00 0.00
0.00 0.00 0.00 0.02 0.01 0.01 0.02 0.03 0.09 0.12 0.07 0.04 0.03 0.01 0.00 0.00 0.00 0.00 0.02 0.05 0.06 0.02 0.01 0.01 0.00 0.00 0.00 0.04 0.04 0.02 0.00 0.00
0.01 0.00 0.00 0.00 0.00 0.01 0.01 0.04 0.09 0.21 0.15 0.09 0.03 0.02 0.00 0.00 0.00 0.00 0.00 0.01 0.02 0.03 0.01 0.01 0.15 0.05 0.00 0.09 0.15 0.09 0.11 0.02
0.01 0.01 0.00 0.00 0.00 0.00 0.00 0.02 0.03 0.05 0.04 0.04 0.02 0.02 0.01 0.00 0.00 0.00 0.00 0.00 0.03 0.06 0.04 0.03 0.34 0.23 0.17 0.07 0.07 0.13 0.26 0.20
0.01 0.01 0.00 0.00 0.01 0.00 0.00 0.00 0.00 0.01 0.00 0.01 0.01 0.01 0.01 0.00 0.02 0.02 0.01 0.02 0.07 0.13 0.17 0.18 0.37 0.17 0.03 0.09 0.06 0.06 0.11 0.08
0.00 0.01 0.00 0.00 0.01 0.00 0.00 0.00 0.00 0.00 0.01 0.00 0.00 0.00 0.00 0.01 0.01 0.03 0.05 0.07 0.08 0.11 0.12 0.20 0.29 0.22 0.08 0.08 0.08 0.07 0.06 0.09
0.00 0.00 0.01 0.00 0.00 0.00 0.00 0.00 0.00 0.00 0.00 0.00 0.00 0.00 0.00 0.00 0.00 0.00 0.01 0.03 0.05 0.05 0.10 0.11 0.14 0.15 0.12 0.09 0.07 0.06 0.09 0.13
0.00 0.00 0.00 0.01 0.00 0.00 0.00 0.00 0.00 0.00 0.00 0.00 0.00 0.00 0.00 0.00 0.00 0.00 0.00 0.00 0.02 0.04 0.07 0.06 0.06 0.10 0.10 0.08 0.07 0.04 0.03 0.04

GFSFLT2_prec_precacc12_084.txt.gz
Total_Precipitation_Accumulation
0.00 0.01 0.06 0.02 0.06 0.37 0.86 1.60 2.60 2.70 2.32 1.41 1.78 1.16 0.89 0.47 0.22 0.15 0.09 0.04 0.03 0.01 0.01 0.00 0.00 0.00 0.00 0.00 0.00 0.00 0.00 0.00
0.00 0.02 0.06 0.06 0.13 0.21 0.52 0.58 0.72 1.30 2.70 2.53 1.97 1.37 1.02 0.71 0.46 0.33 0.17 0.09 0.01 0.00 0.00 0.00 0.00 0.00 0.00 0.00 0.00 0.00 0.00 0.00
0.00 0.01 0.06 0.04 0.13 0.20 0.35 0.29 0.40 0.56 0.79 1.62 1.83 1.22 0.87 0.63 0.39 0.30 0.30 0.13 0.01 0.00 0.00 0.00 0.00 0.00 0.00 0.00 0.00 0.00 0.00 0.00
0.01 0.10 0.16 0.10 0.11 0.31 0.34 0.34 0.32 0.67 0.80 0.71 1.12 0.98 0.60 0.40 0.33 0.26 0.25 0.14 0.00 0.00 0.00 0.00 0.00 0.00 0.00 0.00 0.00 0.00 0.00 0.00
0.01 0.04 0.17 0.16 0.13 0.37 0.23 0.17 0.26 0.75 1.04 0.55 0.77 0.80 0.59 0.26 0.22 0.22 0.20 0.10 0.01 0.00 0.00 0.00 0.00 0.00 0.00 0.00 0.00 0.00 0.00 0.00
0.00 0.01 0.05 0.09 0.10 0.23 0.14 0.08 0.10 0.48 1.31 0.45 0.57 0.47 0.62 0.12 0.06 0.07 0.10 0.03 0.00 0.00 0.00 0.00 0.00 0.00 0.00 0.00 0.00 0.00 0.00 0.00
0.00 0.00 0.00 0.01 0.04 0.17 0.19 0.09 0.08 0.30 1.35 0.46 0.24 0.22 0.41 0.16 0.04 0.03 0.02 0.00 0.00 0.00 0.00 0.00 0.00 0.00 0.00 0.00 0.00 0.00 0.00 0.00
0.00 0.00 0.00 0.00 0.14 0.26 0.40 0.19 0.13 0.28 0.93 0.60 0.20 0.14 0.17 0.16 0.05 0.02 0.00 0.00 0.00 0.00 0.00 0.00 0.00 0.00 0.00 0.00 0.00 0.00 0.00 0.00
0.00 0.00 0.00 0.00 0.02 0.12 0.29 0.30 0.18 0.12 0.42 0.54 0.19 0.17 0.07 0.12 0.05 0.02 0.01 0.00 0.00 0.00 0.00 0.00 0.00 0.00 0.00 0.00 0.00 0.00 0.00 0.00
0.00 0.00 0.00 0.00 0.01 0.04 0.11 0.26 0.22 0.10 0.15 0.32 0.17 0.21 0.06 0.07 0.06 0.02 0.00 0.00 0.00 0.00 0.00 0.00 0.00 0.00 0.00 0.00 0.00 0.00 0.00 0.00
0.00 0.00 0.00 0.00 0.01 0.06 0.16 0.23 0.39 0.19 0.24 0.26 0.23 0.26 0.13 0.03 0.02 0.02 0.01 0.01 0.00 0.00 0.00 0.00 0.00 0.00 0.00 0.00 0.00 0.00 0.00 0.00
0.00 0.00 0.00 0.00 0.01 0.06 0.16 0.27 0.37 0.39 0.39 0.27 0.37 0.35 0.19 0.05 0.02 0.08 0.05 0.05 0.04 0.00 0.00 0.00 0.00 0.00 0.00 0.00 0.00 0.00 0.00 0.00
0.00 0.00 0.00 0.00 0.01 0.03 0.13 0.21 0.26 0.51 0.53 0.28 0.36 0.44 0.18 0.04 0.01 0.03 0.07 0.14 0.06 0.01 0.00 0.00 0.00 0.00 0.00 0.00 0.00 0.00 0.00 0.00
0.00 0.00 0.00 0.00 0.01 0.01 0.03 0.06 0.17 0.46 0.68 0.38 0.39 0.39 0.14 0.02 0.00 0.00 0.02 0.05 0.05 0.01 0.00 0.00 0.00 0.00 0.00 0.00 0.00 0.00 0.00 0.00
0.00 0.00 0.00 0.00 0.00 0.00 0.01 0.04 0.15 0.77 1.03 0.56 0.31 0.31 0.12 0.02 0.01 0.00 0.00 0.01 0.01 0.00 0.00 0.00 0.00 0.00 0.00 0.00 0.00 0.00 0.00 0.00
0.00 0.00 0.00 0.00 0.00 0.00 0.00 0.02 0.06 0.39 0.76 0.56 0.24 0.21 0.11 0.04 0.01 0.00 0.00 0.00 0.01 0.01 0.00 0.00 0.00 0.01 0.01 0.00 0.02 0.06 0.02 0.02
0.00 0.00 0.00 0.00 0.00 0.00 0.00 0.00 0.00 0.08 0.56 0.64 0.47 0.24 0.16 0.09 0.03 0.01 0.00 0.01 0.01 0.01 0.01 0.01 0.04 0.02 0.00 0.00 0.01 0.03 0.03 0.02
0.00 0.00 0.00 0.00 0.00 0.00 0.00 0.00 0.00 0.02 0.19 0.46 0.50 0.35 0.25 0.16 0.10 0.05 0.02 0.01 0.01 0.01 0.01 0.03 0.09 0.05 0.01 0.00 0.00 0.00 0.01 0.03
0.00 0.00 0.00 0.00 0.00 0.00 0.00 0.00 0.00 0.00 0.02 0.20 0.38 0.36 0.24 0.20 0.15 0.11 0.05 0.03 0.03 0.02 0.03 0.06 0.10 0.06 0.02 0.01 0.00 0.01 0.01 0.03
0.00 0.00 0.00 0.00 0.00 0.00 0.00 0.00 0.00 0.00 0.00 0.03 0.14 0.28 0.16 0.12 0.16 0.17 0.13 0.07 0.06 0.06 0.07 0.05 0.04 0.06 0.04 0.03 0.02 0.01 0.01 0.01

GFSFLT2_prec_precacc12_087.txt.gz
Total_Precipitation_Accumulation
0.00 0.00 0.00 0.01 0.06 0.22 0.34 0.87 1.38 1.36 0.82 0.74 1.49 1.16 0.91 0.49 0.25 0.19 0.13 0.07 0.05 0.04 0.01 0.00 0.00 0.00 0.00 0.00 0.00 0.00 0.00 0.00
0.00 0.00 0.01 0.02 0.11 0.17 0.38 0.49 0.57 0.69 0.99 1.13 1.45 1.34 1.03 0.74 0.52 0.39 0.23 0.13 0.04 0.04 0.01 0.00 0.00 0.00 0.00 0.00 0.00 0.00 0.00 0.00
0.00 0.00 0.01 0.02 0.07 0.16 0.31 0.28 0.40 0.32 0.23 0.39 1.41 1.22 0.93 0.72 0.51 0.40 0.45 0.31 0.07 0.03 0.03 0.00 0.00 0.00 0.00 0.00 0.00 0.00 0.00 0.00
0.00 0.00 0.02 0.04 0.07 0.21 0.30 0.34 0.31 0.28 0.19 0.19 0.85 0.98 0.63 0.44 0.42 0.38 0.43 0.47 0.22 0.07 0.02 0.00 0.00 0.00 0.00 0.00 0.00 0.00 0.00 0.00
0.00 0.00 0.01 0.05 0.08 0.24 0.20 0.16 0.22 0.20 0.17 0.14 0.61 0.79 0.61 0.27 0.26 0.31 0.34 0.32 0.21 0.12 0.02 0.00 0.00 0.00 0.00 0.00 0.00 0.00 0.00 0.00
0.00 0.00 0.00 0.01 0.08 0.16 0.10 0.09 0.09 0.13 0.24 0.21 0.47 0.48 0.65 0.12 0.08 0.13 0.19 0.13 0.10 0.05 0.00 0.00 0.00 0.00 0.00 0.00 0.00 0.00 0.00 0.00
0.00 0.00 0.00 0.00 0.02 0.12 0.15 0.06 0.05 0.08 0.58 0.31 0.22 0.23 0.42 0.13 0.06 0.08 0.09 0.06 0.04 0.01 0.00 0.00 0.00 0.00 0.00 0.00 0.00 0.00 0.00 0.00
0.00 0.00 0.00 0.00 0.02 0.07 0.26 0.10 0.05 0.05 0.33 0.39 0.19 0.15 0.18 0.14 0.08 0.04 0.02 0.03 0.02 0.01 0.00 0.00 0.00 0.00 0.00 0.00 0.00 0.00 0.00 0.00
0.00 0.00 0.00 0.00 0.02 0.04 0.15 0.20 0.10 0.05 0.21 0.37 0.19 0.17 0.08 0.12 0.08 0.04 0.03 0.02 0.01 0.00 0.00 0.00 0.00 0.00 0.00 0.00 0.00 0.00 0.00 0.00
0.00 0.00 0.00 0.00 0.01 0.03 0.08 0.18 0.16 0.10 0.14 0.30 0.17 0.23 0.09 0.10 0.12 0.08 0.05 0.04 0.01 0.00 0.00 0.00 0.00 0.00 0.00 0.00 0.00 0.00 0.00 0.00
0.00 0.00 0.00 0.00 0.01 0.03 0.11 0.15 0.24 0.15 0.24 0.28 0.24 0.29 0.15 0.05 0.11 0.11 0.08 0.04 0.01 0.00 0.00 0.00 0.00 0.00 0.00 0.00 0.00 0.00 0.00 0.00
0.00 0.00 0.00 0.00 0.01 0.04 0.10 0.21 0.24 0.33 0.34 0.26 0.36 0.38 0.24 0.08 0.05 0.11 0.11 0.04 0.00 0.00 0.00 0.00 0.00 0.00 0.00 0.00 0.00 0.00 0.00 0.00
0.00 0.00 0.00 0.00 0.01 0.04 0.12 0.18 0.21 0.47 0.51 0.30 0.40 0.54 0.36 0.17 0.04 0.03 0.05 0.02 0.00 0.00 0.00 0.00 0.00 0.00 0.00 0.00 0.00 0.00 0.00 0.00
0.00 0.00 0.00 0.00 0.00 0.01 0.03 0.06 0.16 0.46 0.72 0.45 0.51 0.53 0.39 0.23 0.06 0.02 0.01 0.01 0.01 0.00 0.00 0.00 0.00 0.00 0.00 0.00 0.00 0.00 0.00 0.00
0.00 0.00 0.00 0.00 0.00 0.00 0.01 0.04 0.16 0.79 1.16 0.80 0.55 0.53 0.36 0.17 0.07 0.04 0.00 0.00 0.00 0.00 0.00 0.00 0.00 0.00 0.00 0.00 0.00 0.00 0.00 0.00
0.00 0.00 0.00 0.00 0.00 0.00 0.01 0.03 0.07 0.43 0.95 0.83 0.49 0.43 0.35 0.13 0.07 0.03 0.00 0.00 0.01 0.01 0.00 0.00 0.00 0.00 0.00 0.00 0.00 0.00 0.00 0.00
0.00 0.00 0.00 0.00 0.00 0.00 0.00 0.00 0.00 0.09 0.80 1.03 0.74 0.45 0.30 0.13 0.06 0.02 0.01 0.01 0.01 0.01 0.01 0.00 0.00 0.00 0.00 0.00 0.00 0.00 0.00 0.00
0.00 0.00 0.00 0.00 0.00 0.00 0.00 0.00 0.00 0.03 0.33 0.74 0.88 0.56 0.41 0.21 0.12 0.06 0.02 0.01 0.01 0.01 0.01 0.00 0.00 0.01 0.01 0.00 0.00 0.00 0.00 0.00
0.00 0.00 0.00 0.00 0.00 0.00 0.00 0.00 0.00 0.00 0.05 0.32 0.61 0.57 0.40 0.28 0.20 0.14 0.06 0.04 0.02 0.02 0.02 0.01 0.01 0.01 0.01 0.01 0.00 0.00 0.00 0.00
0.00 0.00 0.00 0.00 0.00 0.00 0.00 0.00 0.00 0.00 0.00 0.13 0.40 0.48 0.37 0.26 0.29 0.27 0.22 0.12 0.08 0.06 0.05 0.05 0.03 0.02 0.02 0.03 0.02 0.01 0.00 0.00